owner,sensor,date,latitude,longitude,vertical_datum,sea_water_practical_salinity,qcFlag 
DISL,ioos:station:DISL:KATA:1,2017-02-01T00:00:00Z,30.2583,-88.2131,3.895,24.18,1111122 
DISL,ioos:station:DISL:KATA:1,2017-02-01T00:30:00Z,30.2583,-88.2131,3.901,24.22,1111122 
DISL,ioos:station:DISL:KATA:1,2017-02-01T01:00:00Z,30.2583,-88.2131,3.907,24.26,1111122 
DISL,ioos:station:DISL:KATA:1,2017-02-01T01:30:00Z,30.2583,-88.2131,3.923,24.32,1111122 
DISL,ioos:station:DISL:KATA:1,2017-02-01T02:00:00Z,30.2583,-88.2131,3.949,24.6,1111122 
DISL,ioos:station:DISL:KATA:1,2017-02-01T02:30:00Z,30.2583,-88.2131,3.97,24.97,1111122 
DISL,ioos:station:DISL:KATA:1,2017-02-01T03:00:00Z,30.2583,-88.2131,3.987,25.34,1111122 
DISL,ioos:station:DISL:KATA:1,2017-02-01T03:30:00Z,30.2583,-88.2131,4.001,25.82,1111122 
DISL,ioos:station:DISL:KATA:1,2017-02-01T04:00:00Z,30.2583,-88.2131,4.012,25.79,1111122 
DISL,ioos:station:DISL:KATA:1,2017-02-01T04:30:00Z,30.2583,-88.2131,4.023,25.68,1111122 
DISL,ioos:station:DISL:KATA:1,2017-02-01T05:00:00Z,30.2583,-88.2131,4.034,25.63,1111122 
DISL,ioos:station:DISL:KATA:1,2017-02-01T05:30:00Z,30.2583,-88.2131,4.029,25.46,1111122 
DISL,ioos:station:DISL:KATA:1,2017-02-01T06:00:00Z,30.2583,-88.2131,4.018,25.37,1111122 
DISL,ioos:station:DISL:KATA:1,2017-02-01T06:30:00Z,30.2583,-88.2131,4.003,25.36,1111122 
DISL,ioos:station:DISL:KATA:1,2017-02-01T07:00:00Z,30.2583,-88.2131,3.994,25.39,1111122 
DISL,ioos:station:DISL:KATA:1,2017-02-01T07:30:00Z,30.2583,-88.2131,3.99,25.41,1111122 
DISL,ioos:station:DISL:KATA:1,2017-02-01T08:00:00Z,30.2583,-88.2131,3.988,25.4,1111122 
DISL,ioos:station:DISL:KATA:1,2017-02-01T08:30:00Z,30.2583,-88.2131,3.978,25.39,1111122 
DISL,ioos:station:DISL:KATA:1,2017-02-01T09:00:00Z,30.2583,-88.2131,3.971,25.37,1111122 
DISL,ioos:station:DISL:KATA:1,2017-02-01T09:30:00Z,30.2583,-88.2131,3.963,25.37,1111122 
DISL,ioos:station:DISL:KATA:1,2017-02-01T10:00:00Z,30.2583,-88.2131,3.941,25.39,1111122 
DISL,ioos:station:DISL:KATA:1,2017-02-01T10:30:00Z,30.2583,-88.2131,3.918,25.43,1111122 
DISL,ioos:station:DISL:KATA:1,2017-02-01T11:00:00Z,30.2583,-88.2131,3.896,25.48,1111122 
DISL,ioos:station:DISL:KATA:1,2017-02-01T11:30:00Z,30.2583,-88.2131,3.865,25.46,1111122 
DISL,ioos:station:DISL:KATA:1,2017-02-01T12:00:00Z,30.2583,-88.2131,3.836,25.42,1111122 
DISL,ioos:station:DISL:KATA:1,2017-02-01T12:30:00Z,30.2583,-88.2131,3.814,25.43,1111122 
DISL,ioos:station:DISL:KATA:1,2017-02-01T13:00:00Z,30.2583,-88.2131,3.792,25.44,1111122 
DISL,ioos:station:DISL:KATA:1,2017-02-01T13:30:00Z,30.2583,-88.2131,3.778,25.4,1111122 
DISL,ioos:station:DISL:KATA:1,2017-02-01T14:00:00Z,30.2583,-88.2131,3.77,25.34,1111122 
DISL,ioos:station:DISL:KATA:1,2017-02-01T14:30:00Z,30.2583,-88.2131,3.773,25.36,1111122 
DISL,ioos:station:DISL:KATA:1,2017-02-01T15:00:00Z,30.2583,-88.2131,3.789,25.41,1111122 
DISL,ioos:station:DISL:KATA:1,2017-02-01T15:30:00Z,30.2583,-88.2131,3.804,25.4,1111122 
DISL,ioos:station:DISL:KATA:1,2017-02-01T16:00:00Z,30.2583,-88.2131,3.821,25.39,1111122 
DISL,ioos:station:DISL:KATA:1,2017-02-01T16:30:00Z,30.2583,-88.2131,3.845,25.37,1111122 
DISL,ioos:station:DISL:KATA:1,2017-02-01T17:00:00Z,30.2583,-88.2131,3.864,25.36,1111122 
DISL,ioos:station:DISL:KATA:1,2017-02-01T17:30:00Z,30.2583,-88.2131,3.876,25.36,1111122 
DISL,ioos:station:DISL:KATA:1,2017-02-01T18:00:00Z,30.2583,-88.2131,3.888,25.36,1111122 
DISL,ioos:station:DISL:KATA:1,2017-02-01T18:30:00Z,30.2583,-88.2131,3.893,25.32,1111122 
DISL,ioos:station:DISL:KATA:1,2017-02-01T19:00:00Z,30.2583,-88.2131,3.899,25.31,1111122 
DISL,ioos:station:DISL:KATA:1,2017-02-01T19:30:00Z,30.2583,-88.2131,3.912,25.3,1111122 
DISL,ioos:station:DISL:KATA:1,2017-02-01T20:00:00Z,30.2583,-88.2131,3.923,25.28,1111122 
DISL,ioos:station:DISL:KATA:1,2017-02-01T20:30:00Z,30.2583,-88.2131,3.938,25.25,1111122 
DISL,ioos:station:DISL:KATA:1,2017-02-01T21:00:00Z,30.2583,-88.2131,3.954,25.23,1111122 
DISL,ioos:station:DISL:KATA:1,2017-02-01T21:30:00Z,30.2583,-88.2131,3.97,25.22,1111122 
DISL,ioos:station:DISL:KATA:1,2017-02-01T22:00:00Z,30.2583,-88.2131,3.981,25.2,1111122 
DISL,ioos:station:DISL:KATA:1,2017-02-01T22:30:00Z,30.2583,-88.2131,3.982,25.18,1111122 
DISL,ioos:station:DISL:KATA:1,2017-02-01T23:00:00Z,30.2583,-88.2131,3.971,25.17,1111122 
DISL,ioos:station:DISL:KATA:1,2017-02-01T23:30:00Z,30.2583,-88.2131,3.958,25.18,1111122 
DISL,ioos:station:DISL:KATA:1,2017-02-02T00:00:00Z,30.2583,-88.2131,3.946,25.24,1111122 
DISL,ioos:station:DISL:KATA:1,2017-02-02T00:30:00Z,30.2583,-88.2131,3.936,25.24,1111122 
DISL,ioos:station:DISL:KATA:1,2017-02-02T01:00:00Z,30.2583,-88.2131,3.932,25.25,1111122 
DISL,ioos:station:DISL:KATA:1,2017-02-02T01:30:00Z,30.2583,-88.2131,3.928,25.27,1111122 
DISL,ioos:station:DISL:KATA:1,2017-02-02T02:00:00Z,30.2583,-88.2131,3.925,25.28,1111122 
DISL,ioos:station:DISL:KATA:1,2017-02-02T02:30:00Z,30.2583,-88.2131,3.935,25.28,1111122 
DISL,ioos:station:DISL:KATA:1,2017-02-02T03:00:00Z,30.2583,-88.2131,3.942,25.27,1111122 
DISL,ioos:station:DISL:KATA:1,2017-02-02T03:30:00Z,30.2583,-88.2131,3.953,25.26,1111122 
DISL,ioos:station:DISL:KATA:1,2017-02-02T04:00:00Z,30.2583,-88.2131,3.962,25.27,1111122 
DISL,ioos:station:DISL:KATA:1,2017-02-02T04:30:00Z,30.2583,-88.2131,3.968,25.27,1111122 
DISL,ioos:station:DISL:KATA:1,2017-02-02T05:00:00Z,30.2583,-88.2131,3.967,25.27,1111122 
DISL,ioos:station:DISL:KATA:1,2017-02-02T05:30:00Z,30.2583,-88.2131,3.96,25.27,1111122 
DISL,ioos:station:DISL:KATA:1,2017-02-02T06:00:00Z,30.2583,-88.2131,3.954,25.26,1111122 
DISL,ioos:station:DISL:KATA:1,2017-02-02T06:30:00Z,30.2583,-88.2131,3.946,25.16,1111122 
DISL,ioos:station:DISL:KATA:1,2017-02-02T07:00:00Z,30.2583,-88.2131,3.933,25.24,1111122 
DISL,ioos:station:DISL:KATA:1,2017-02-02T07:30:00Z,30.2583,-88.2131,3.931,25.24,1111122 
DISL,ioos:station:DISL:KATA:1,2017-02-02T08:00:00Z,30.2583,-88.2131,3.931,25.24,1111122 
DISL,ioos:station:DISL:KATA:1,2017-02-02T08:30:00Z,30.2583,-88.2131,3.939,25.24,1111122 
DISL,ioos:station:DISL:KATA:1,2017-02-02T09:00:00Z,30.2583,-88.2131,3.942,25.23,1111122 
DISL,ioos:station:DISL:KATA:1,2017-02-02T09:30:00Z,30.2583,-88.2131,3.943,25.22,1111122 
DISL,ioos:station:DISL:KATA:1,2017-02-02T10:00:00Z,30.2583,-88.2131,3.94,25.22,1111122 
DISL,ioos:station:DISL:KATA:1,2017-02-02T10:30:00Z,30.2583,-88.2131,3.926,25.23,1111122 
DISL,ioos:station:DISL:KATA:1,2017-02-02T11:00:00Z,30.2583,-88.2131,3.909,25.23,1111122 
DISL,ioos:station:DISL:KATA:1,2017-02-02T11:30:00Z,30.2583,-88.2131,3.894,25.23,1111122 
DISL,ioos:station:DISL:KATA:1,2017-02-02T12:00:00Z,30.2583,-88.2131,3.866,25.23,1111122 
DISL,ioos:station:DISL:KATA:1,2017-02-02T12:30:00Z,30.2583,-88.2131,3.844,25.22,1111122 
DISL,ioos:station:DISL:KATA:1,2017-02-02T13:00:00Z,30.2583,-88.2131,3.829,25.22,1111122 
DISL,ioos:station:DISL:KATA:1,2017-02-02T13:30:00Z,30.2583,-88.2131,3.822,25.21,1111122 
DISL,ioos:station:DISL:KATA:1,2017-02-02T14:00:00Z,30.2583,-88.2131,3.828,25.2,1111122 
DISL,ioos:station:DISL:KATA:1,2017-02-02T14:30:00Z,30.2583,-88.2131,3.841,25.19,1111122 
DISL,ioos:station:DISL:KATA:1,2017-02-02T15:00:00Z,30.2583,-88.2131,3.864,25.19,1111122 
DISL,ioos:station:DISL:KATA:1,2017-02-02T15:30:00Z,30.2583,-88.2131,3.886,25.2,1111122 
DISL,ioos:station:DISL:KATA:1,2017-02-02T16:00:00Z,30.2583,-88.2131,3.908,25.12,1111122 
DISL,ioos:station:DISL:KATA:1,2017-02-02T16:30:00Z,30.2583,-88.2131,3.934,25.12,1111122 
DISL,ioos:station:DISL:KATA:1,2017-02-02T17:00:00Z,30.2583,-88.2131,3.939,25.02,1111122 
DISL,ioos:station:DISL:KATA:1,2017-02-02T17:30:00Z,30.2583,-88.2131,3.945,24.97,1111122 
DISL,ioos:station:DISL:KATA:1,2017-02-02T18:00:00Z,30.2583,-88.2131,3.94,25.11,1111122 
DISL,ioos:station:DISL:KATA:1,2017-02-02T18:30:00Z,30.2583,-88.2131,3.938,25.1,1111122 
DISL,ioos:station:DISL:KATA:1,2017-02-02T19:00:00Z,30.2583,-88.2131,3.948,25.11,1111122 
DISL,ioos:station:DISL:KATA:1,2017-02-02T19:30:00Z,30.2583,-88.2131,3.958,25.1,1111122 
DISL,ioos:station:DISL:KATA:1,2017-02-02T20:00:00Z,30.2583,-88.2131,3.974,25.09,1111122 
DISL,ioos:station:DISL:KATA:1,2017-02-02T20:30:00Z,30.2583,-88.2131,3.995,25.08,1111122 
DISL,ioos:station:DISL:KATA:1,2017-02-02T21:00:00Z,30.2583,-88.2131,4.011,25.07,1111122 
DISL,ioos:station:DISL:KATA:1,2017-02-02T21:30:00Z,30.2583,-88.2131,4.021,25.06,1111122 
DISL,ioos:station:DISL:KATA:1,2017-02-02T22:00:00Z,30.2583,-88.2131,4.02,25.06,1111122 
DISL,ioos:station:DISL:KATA:1,2017-02-02T22:30:00Z,30.2583,-88.2131,4.017,25.03,1111122 
DISL,ioos:station:DISL:KATA:1,2017-02-02T23:00:00Z,30.2583,-88.2131,4.01,25.08,1111122 
DISL,ioos:station:DISL:KATA:1,2017-02-02T23:30:00Z,30.2583,-88.2131,4.002,25.07,1111122 
DISL,ioos:station:DISL:KATA:1,2017-02-03T00:00:00Z,30.2583,-88.2131,3.992,25.09,1111122 
DISL,ioos:station:DISL:KATA:1,2017-02-03T00:30:00Z,30.2583,-88.2131,3.973,25.09,1111122 
DISL,ioos:station:DISL:KATA:1,2017-02-03T01:00:00Z,30.2583,-88.2131,3.951,25.08,1111122 
DISL,ioos:station:DISL:KATA:1,2017-02-03T01:30:00Z,30.2583,-88.2131,3.928,25.07,1111122 
DISL,ioos:station:DISL:KATA:1,2017-02-03T02:00:00Z,30.2583,-88.2131,3.909,25.05,1111122 
DISL,ioos:station:DISL:KATA:1,2017-02-03T02:30:00Z,30.2583,-88.2131,3.895,25.02,1111122 
DISL,ioos:station:DISL:KATA:1,2017-02-03T03:00:00Z,30.2583,-88.2131,3.904,25.01,1111122 
DISL,ioos:station:DISL:KATA:1,2017-02-03T03:30:00Z,30.2583,-88.2131,3.902,25.0,1111122 
DISL,ioos:station:DISL:KATA:1,2017-02-03T04:00:00Z,30.2583,-88.2131,3.918,24.99,1111122 
DISL,ioos:station:DISL:KATA:1,2017-02-03T04:30:00Z,30.2583,-88.2131,3.919,24.9,1111122 
DISL,ioos:station:DISL:KATA:1,2017-02-03T05:00:00Z,30.2583,-88.2131,3.92,24.98,1111122 
DISL,ioos:station:DISL:KATA:1,2017-02-03T05:30:00Z,30.2583,-88.2131,3.909,25.0,1111122 
DISL,ioos:station:DISL:KATA:1,2017-02-03T06:00:00Z,30.2583,-88.2131,3.898,25.0,1111122 
DISL,ioos:station:DISL:KATA:1,2017-02-03T06:30:00Z,30.2583,-88.2131,3.878,25.01,1111122 
DISL,ioos:station:DISL:KATA:1,2017-02-03T07:00:00Z,30.2583,-88.2131,3.856,25.0,1111122 
DISL,ioos:station:DISL:KATA:1,2017-02-03T07:30:00Z,30.2583,-88.2131,3.845,25.01,1111122 
DISL,ioos:station:DISL:KATA:1,2017-02-03T08:00:00Z,30.2583,-88.2131,3.835,25.01,1111122 
DISL,ioos:station:DISL:KATA:1,2017-02-03T08:30:00Z,30.2583,-88.2131,3.843,25.01,1111122 
DISL,ioos:station:DISL:KATA:1,2017-02-03T09:00:00Z,30.2583,-88.2131,3.858,25.0,1111122 
DISL,ioos:station:DISL:KATA:1,2017-02-03T09:30:00Z,30.2583,-88.2131,3.874,25.0,1111122 
DISL,ioos:station:DISL:KATA:1,2017-02-03T10:00:00Z,30.2583,-88.2131,3.886,24.98,1111122 
DISL,ioos:station:DISL:KATA:1,2017-02-03T10:30:00Z,30.2583,-88.2131,3.893,24.99,1111122 
DISL,ioos:station:DISL:KATA:1,2017-02-03T11:00:00Z,30.2583,-88.2131,3.89,25.0,1111122 
DISL,ioos:station:DISL:KATA:1,2017-02-03T11:30:00Z,30.2583,-88.2131,3.9,24.99,1111122 
DISL,ioos:station:DISL:KATA:1,2017-02-03T12:00:00Z,30.2583,-88.2131,3.882,25.0,1111122 
DISL,ioos:station:DISL:KATA:1,2017-02-03T12:30:00Z,30.2583,-88.2131,3.866,25.01,1111122 
DISL,ioos:station:DISL:KATA:1,2017-02-03T13:00:00Z,30.2583,-88.2131,3.854,25.01,1111122 
DISL,ioos:station:DISL:KATA:1,2017-02-03T13:30:00Z,30.2583,-88.2131,3.855,25.01,1111122 
DISL,ioos:station:DISL:KATA:1,2017-02-03T14:00:00Z,30.2583,-88.2131,3.876,25.01,1111122 
DISL,ioos:station:DISL:KATA:1,2017-02-03T14:30:00Z,30.2583,-88.2131,3.89,25.01,1111122 
DISL,ioos:station:DISL:KATA:1,2017-02-03T15:00:00Z,30.2583,-88.2131,3.913,25.01,1111122 
DISL,ioos:station:DISL:KATA:1,2017-02-03T15:30:00Z,30.2583,-88.2131,3.935,24.97,1111122 
DISL,ioos:station:DISL:KATA:1,2017-02-03T16:00:00Z,30.2583,-88.2131,3.967,24.93,1111122 
DISL,ioos:station:DISL:KATA:1,2017-02-03T16:30:00Z,30.2583,-88.2131,4.002,24.96,1111122 
DISL,ioos:station:DISL:KATA:1,2017-02-03T17:00:00Z,30.2583,-88.2131,3.998,24.9,1111122 
DISL,ioos:station:DISL:KATA:1,2017-02-03T17:30:00Z,30.2583,-88.2131,3.977,24.97,1111122 
DISL,ioos:station:DISL:KATA:1,2017-02-03T18:00:00Z,30.2583,-88.2131,3.986,24.98,1111122 
DISL,ioos:station:DISL:KATA:1,2017-02-03T18:30:00Z,30.2583,-88.2131,3.96,24.93,1111122 
DISL,ioos:station:DISL:KATA:1,2017-02-03T19:00:00Z,30.2583,-88.2131,3.963,24.94,1111122 
DISL,ioos:station:DISL:KATA:1,2017-02-03T19:30:00Z,30.2583,-88.2131,3.972,24.91,1111122 
DISL,ioos:station:DISL:KATA:1,2017-02-03T20:00:00Z,30.2583,-88.2131,3.976,24.95,1111122 
DISL,ioos:station:DISL:KATA:1,2017-02-03T20:30:00Z,30.2583,-88.2131,3.995,24.98,1111122 
DISL,ioos:station:DISL:KATA:1,2017-02-03T21:00:00Z,30.2583,-88.2131,4.016,25.01,1111122 
DISL,ioos:station:DISL:KATA:1,2017-02-03T21:30:00Z,30.2583,-88.2131,3.995,25.01,1111122 
DISL,ioos:station:DISL:KATA:1,2017-02-03T22:00:00Z,30.2583,-88.2131,3.949,24.99,1111122 
DISL,ioos:station:DISL:KATA:1,2017-02-03T22:30:00Z,30.2583,-88.2131,3.95,24.98,1111122 
DISL,ioos:station:DISL:KATA:1,2017-02-03T23:00:00Z,30.2583,-88.2131,3.943,24.99,1111122 
DISL,ioos:station:DISL:KATA:1,2017-02-03T23:30:00Z,30.2583,-88.2131,3.947,24.98,1111122 
DISL,ioos:station:DISL:KATA:1,2017-02-04T00:00:00Z,30.2583,-88.2131,3.935,24.99,1111122 
DISL,ioos:station:DISL:KATA:1,2017-02-04T00:30:00Z,30.2583,-88.2131,3.894,24.98,1111122 
DISL,ioos:station:DISL:KATA:1,2017-02-04T01:00:00Z,30.2583,-88.2131,3.858,24.98,1111122 
DISL,ioos:station:DISL:KATA:1,2017-02-04T01:30:00Z,30.2583,-88.2131,3.834,24.98,1111122 
DISL,ioos:station:DISL:KATA:1,2017-02-04T02:00:00Z,30.2583,-88.2131,3.809,24.98,1111122 
DISL,ioos:station:DISL:KATA:1,2017-02-04T02:30:00Z,30.2583,-88.2131,3.786,24.98,1111122 
DISL,ioos:station:DISL:KATA:1,2017-02-04T03:00:00Z,30.2583,-88.2131,3.762,24.98,1111122 
DISL,ioos:station:DISL:KATA:1,2017-02-04T03:30:00Z,30.2583,-88.2131,3.747,24.76,1111122 
DISL,ioos:station:DISL:KATA:1,2017-02-04T04:00:00Z,30.2583,-88.2131,3.72,24.95,1111122 
DISL,ioos:station:DISL:KATA:1,2017-02-04T04:30:00Z,30.2583,-88.2131,3.695,24.96,1111122 
DISL,ioos:station:DISL:KATA:1,2017-02-04T05:00:00Z,30.2583,-88.2131,3.679,24.95,1111122 
DISL,ioos:station:DISL:KATA:1,2017-02-04T05:30:00Z,30.2583,-88.2131,3.649,24.96,1111122 
DISL,ioos:station:DISL:KATA:1,2017-02-04T06:00:00Z,30.2583,-88.2131,3.629,24.96,1111122 
DISL,ioos:station:DISL:KATA:1,2017-02-04T06:30:00Z,30.2583,-88.2131,3.625,24.97,1111122 
DISL,ioos:station:DISL:KATA:1,2017-02-04T07:00:00Z,30.2583,-88.2131,3.605,24.97,1111122 
DISL,ioos:station:DISL:KATA:1,2017-02-04T07:30:00Z,30.2583,-88.2131,3.592,24.98,1111122 
DISL,ioos:station:DISL:KATA:1,2017-02-04T08:00:00Z,30.2583,-88.2131,3.589,24.97,1111122 
DISL,ioos:station:DISL:KATA:1,2017-02-04T08:30:00Z,30.2583,-88.2131,3.583,24.97,1111122 
DISL,ioos:station:DISL:KATA:1,2017-02-04T09:00:00Z,30.2583,-88.2131,3.586,24.95,1111122 
DISL,ioos:station:DISL:KATA:1,2017-02-04T09:30:00Z,30.2583,-88.2131,3.601,24.93,1111122 
DISL,ioos:station:DISL:KATA:1,2017-02-04T10:00:00Z,30.2583,-88.2131,3.617,24.95,1111122 
DISL,ioos:station:DISL:KATA:1,2017-02-04T10:30:00Z,30.2583,-88.2131,3.638,24.94,1111122 
DISL,ioos:station:DISL:KATA:1,2017-02-04T11:00:00Z,30.2583,-88.2131,3.662,24.94,1111122 
DISL,ioos:station:DISL:KATA:1,2017-02-04T11:30:00Z,30.2583,-88.2131,3.682,24.92,1111122 
DISL,ioos:station:DISL:KATA:1,2017-02-04T12:00:00Z,30.2583,-88.2131,3.705,24.93,1111122 
DISL,ioos:station:DISL:KATA:1,2017-02-04T12:30:00Z,30.2583,-88.2131,3.719,24.92,1111122 
DISL,ioos:station:DISL:KATA:1,2017-02-04T13:00:00Z,30.2583,-88.2131,3.728,24.92,1111122 
DISL,ioos:station:DISL:KATA:1,2017-02-04T13:30:00Z,30.2583,-88.2131,3.731,24.93,1111122 
DISL,ioos:station:DISL:KATA:1,2017-02-04T14:00:00Z,30.2583,-88.2131,3.734,24.89,1111122 
DISL,ioos:station:DISL:KATA:1,2017-02-04T14:30:00Z,30.2583,-88.2131,3.744,24.76,1111122 
DISL,ioos:station:DISL:KATA:1,2017-02-04T15:00:00Z,30.2583,-88.2131,3.763,24.68,1111122 
DISL,ioos:station:DISL:KATA:1,2017-02-04T15:30:00Z,30.2583,-88.2131,3.801,24.73,1111122 
DISL,ioos:station:DISL:KATA:1,2017-02-04T16:00:00Z,30.2583,-88.2131,3.839,24.57,1111122 
DISL,ioos:station:DISL:KATA:1,2017-02-04T16:30:00Z,30.2583,-88.2131,3.878,24.47,1111122 
DISL,ioos:station:DISL:KATA:1,2017-02-04T17:00:00Z,30.2583,-88.2131,3.913,24.43,1111122 
DISL,ioos:station:DISL:KATA:1,2017-02-04T17:30:00Z,30.2583,-88.2131,3.951,24.46,1111122 
DISL,ioos:station:DISL:KATA:1,2017-02-04T18:00:00Z,30.2583,-88.2131,3.968,24.5,1111122 
DISL,ioos:station:DISL:KATA:1,2017-02-04T18:30:00Z,30.2583,-88.2131,3.999,24.56,1111122 
DISL,ioos:station:DISL:KATA:1,2017-02-04T19:00:00Z,30.2583,-88.2131,4.017,24.65,1111122 
DISL,ioos:station:DISL:KATA:1,2017-02-04T19:30:00Z,30.2583,-88.2131,4.032,24.85,1111122 
DISL,ioos:station:DISL:KATA:1,2017-02-04T20:00:00Z,30.2583,-88.2131,4.044,25.12,1111122 
DISL,ioos:station:DISL:KATA:1,2017-02-04T20:30:00Z,30.2583,-88.2131,4.058,25.47,1111122 
DISL,ioos:station:DISL:KATA:1,2017-02-04T21:00:00Z,30.2583,-88.2131,4.075,25.72,1111122 
DISL,ioos:station:DISL:KATA:1,2017-02-04T21:30:00Z,30.2583,-88.2131,4.092,26.46,1111122 
DISL,ioos:station:DISL:KATA:1,2017-02-04T22:00:00Z,30.2583,-88.2131,4.092,27.23,1111122 
DISL,ioos:station:DISL:KATA:1,2017-02-04T22:30:00Z,30.2583,-88.2131,4.083,27.7,1111122 
DISL,ioos:station:DISL:KATA:1,2017-02-04T23:00:00Z,30.2583,-88.2131,4.076,28.06,1111122 
DISL,ioos:station:DISL:KATA:1,2017-02-04T23:30:00Z,30.2583,-88.2131,4.064,28.0,1111122 
DISL,ioos:station:DISL:KATA:1,2017-02-05T00:00:00Z,30.2583,-88.2131,4.038,28.05,1111122 
DISL,ioos:station:DISL:KATA:1,2017-02-05T00:30:00Z,30.2583,-88.2131,4.019,28.07,1111122 
DISL,ioos:station:DISL:KATA:1,2017-02-05T01:00:00Z,30.2583,-88.2131,3.996,28.18,1111122 
DISL,ioos:station:DISL:KATA:1,2017-02-05T01:30:00Z,30.2583,-88.2131,3.975,28.23,1111122 
DISL,ioos:station:DISL:KATA:1,2017-02-05T02:00:00Z,30.2583,-88.2131,3.959,28.27,1111122 
DISL,ioos:station:DISL:KATA:1,2017-02-05T02:30:00Z,30.2583,-88.2131,3.939,28.28,1111122 
DISL,ioos:station:DISL:KATA:1,2017-02-05T03:00:00Z,30.2583,-88.2131,3.907,28.25,1111122 
DISL,ioos:station:DISL:KATA:1,2017-02-05T03:30:00Z,30.2583,-88.2131,3.883,28.24,1111122 
DISL,ioos:station:DISL:KATA:1,2017-02-05T04:00:00Z,30.2583,-88.2131,3.847,28.15,1111122 
DISL,ioos:station:DISL:KATA:1,2017-02-05T04:30:00Z,30.2583,-88.2131,3.814,28.02,1111122 
DISL,ioos:station:DISL:KATA:1,2017-02-05T05:00:00Z,30.2583,-88.2131,3.781,27.94,1111122 
DISL,ioos:station:DISL:KATA:1,2017-02-05T05:30:00Z,30.2583,-88.2131,3.74,27.97,1111122 
DISL,ioos:station:DISL:KATA:1,2017-02-05T06:00:00Z,30.2583,-88.2131,3.708,27.95,1111122 
DISL,ioos:station:DISL:KATA:1,2017-02-05T06:30:00Z,30.2583,-88.2131,3.7,27.83,1111122 
DISL,ioos:station:DISL:KATA:1,2017-02-05T07:00:00Z,30.2583,-88.2131,3.679,27.95,1111122 
DISL,ioos:station:DISL:KATA:1,2017-02-05T07:30:00Z,30.2583,-88.2131,3.658,27.7,1111122 
DISL,ioos:station:DISL:KATA:1,2017-02-05T08:00:00Z,30.2583,-88.2131,3.644,27.94,1111122 
DISL,ioos:station:DISL:KATA:1,2017-02-05T08:30:00Z,30.2583,-88.2131,3.653,27.3,1111122 
DISL,ioos:station:DISL:KATA:1,2017-02-05T09:00:00Z,30.2583,-88.2131,3.661,27.67,1111122 
DISL,ioos:station:DISL:KATA:1,2017-02-05T09:30:00Z,30.2583,-88.2131,3.68,28.25,1111122 
DISL,ioos:station:DISL:KATA:1,2017-02-05T10:00:00Z,30.2583,-88.2131,3.69,28.3,1111122 
DISL,ioos:station:DISL:KATA:1,2017-02-05T10:30:00Z,30.2583,-88.2131,3.7,28.36,1111122 
DISL,ioos:station:DISL:KATA:1,2017-02-05T11:00:00Z,30.2583,-88.2131,3.712,28.42,1111122 
DISL,ioos:station:DISL:KATA:1,2017-02-05T11:30:00Z,30.2583,-88.2131,3.733,28.54,1111122 
DISL,ioos:station:DISL:KATA:1,2017-02-05T12:00:00Z,30.2583,-88.2131,3.748,28.79,1111122 
DISL,ioos:station:DISL:KATA:1,2017-02-05T12:30:00Z,30.2583,-88.2131,3.763,29.0,1111122 
DISL,ioos:station:DISL:KATA:1,2017-02-05T13:00:00Z,30.2583,-88.2131,3.784,29.13,1111122 
DISL,ioos:station:DISL:KATA:1,2017-02-05T13:30:00Z,30.2583,-88.2131,3.812,29.32,1111122 
DISL,ioos:station:DISL:KATA:1,2017-02-05T14:00:00Z,30.2583,-88.2131,3.839,29.32,1111122 
DISL,ioos:station:DISL:KATA:1,2017-02-05T14:30:00Z,30.2583,-88.2131,3.854,29.28,1111122 
DISL,ioos:station:DISL:KATA:1,2017-02-05T15:00:00Z,30.2583,-88.2131,3.87,29.35,1111122 
DISL,ioos:station:DISL:KATA:1,2017-02-05T15:30:00Z,30.2583,-88.2131,3.893,29.28,1111122 
DISL,ioos:station:DISL:KATA:1,2017-02-05T16:00:00Z,30.2583,-88.2131,3.908,29.27,1111122 
DISL,ioos:station:DISL:KATA:1,2017-02-05T16:30:00Z,30.2583,-88.2131,3.929,29.35,1111122 
DISL,ioos:station:DISL:KATA:1,2017-02-05T17:00:00Z,30.2583,-88.2131,3.956,29.4,1111122 
DISL,ioos:station:DISL:KATA:1,2017-02-05T17:30:00Z,30.2583,-88.2131,3.969,29.39,1111122 
DISL,ioos:station:DISL:KATA:1,2017-02-05T18:00:00Z,30.2583,-88.2131,3.981,29.4,1111122 
DISL,ioos:station:DISL:KATA:1,2017-02-05T18:30:00Z,30.2583,-88.2131,3.99,29.45,1111122 
DISL,ioos:station:DISL:KATA:1,2017-02-05T19:00:00Z,30.2583,-88.2131,4.006,29.45,1111122 
DISL,ioos:station:DISL:KATA:1,2017-02-05T19:30:00Z,30.2583,-88.2131,4.027,29.48,1111122 
DISL,ioos:station:DISL:KATA:1,2017-02-05T20:00:00Z,30.2583,-88.2131,4.05,29.49,1111122 
DISL,ioos:station:DISL:KATA:1,2017-02-05T20:30:00Z,30.2583,-88.2131,4.068,29.51,1111122 
DISL,ioos:station:DISL:KATA:1,2017-02-05T21:00:00Z,30.2583,-88.2131,4.084,29.32,1111122 
DISL,ioos:station:DISL:KATA:1,2017-02-05T21:30:00Z,30.2583,-88.2131,4.101,29.36,1111122 
DISL,ioos:station:DISL:KATA:1,2017-02-05T22:00:00Z,30.2583,-88.2131,4.108,29.35,1111122 
DISL,ioos:station:DISL:KATA:1,2017-02-05T22:30:00Z,30.2583,-88.2131,4.098,29.39,1111122 
DISL,ioos:station:DISL:KATA:1,2017-02-05T23:00:00Z,30.2583,-88.2131,4.081,29.29,1111122 
DISL,ioos:station:DISL:KATA:1,2017-02-05T23:30:00Z,30.2583,-88.2131,4.062,29.32,1111122 
DISL,ioos:station:DISL:KATA:1,2017-02-06T00:00:00Z,30.2583,-88.2131,4.045,29.51,1111122 
DISL,ioos:station:DISL:KATA:1,2017-02-06T00:30:00Z,30.2583,-88.2131,4.037,29.52,1111122 
DISL,ioos:station:DISL:KATA:1,2017-02-06T01:00:00Z,30.2583,-88.2131,4.022,29.51,1111122 
DISL,ioos:station:DISL:KATA:1,2017-02-06T01:30:00Z,30.2583,-88.2131,4.007,29.45,1111122 
DISL,ioos:station:DISL:KATA:1,2017-02-06T02:00:00Z,30.2583,-88.2131,3.998,29.39,1111122 
DISL,ioos:station:DISL:KATA:1,2017-02-06T02:30:00Z,30.2583,-88.2131,3.98,29.31,1111122 
DISL,ioos:station:DISL:KATA:1,2017-02-06T03:00:00Z,30.2583,-88.2131,3.958,29.14,1111122 
DISL,ioos:station:DISL:KATA:1,2017-02-06T03:30:00Z,30.2583,-88.2131,3.931,29.08,1111122 
DISL,ioos:station:DISL:KATA:1,2017-02-06T04:00:00Z,30.2583,-88.2131,3.885,28.83,1111122 
DISL,ioos:station:DISL:KATA:1,2017-02-06T04:30:00Z,30.2583,-88.2131,3.844,28.64,1111122 
DISL,ioos:station:DISL:KATA:1,2017-02-06T05:00:00Z,30.2583,-88.2131,3.8,28.87,1111122 
DISL,ioos:station:DISL:KATA:1,2017-02-06T05:30:00Z,30.2583,-88.2131,3.756,28.73,1111122 
DISL,ioos:station:DISL:KATA:1,2017-02-06T06:00:00Z,30.2583,-88.2131,3.717,28.58,1111122 
DISL,ioos:station:DISL:KATA:1,2017-02-06T06:30:00Z,30.2583,-88.2131,3.672,28.55,1111122 
DISL,ioos:station:DISL:KATA:1,2017-02-06T07:00:00Z,30.2583,-88.2131,3.637,28.45,1111122 
DISL,ioos:station:DISL:KATA:1,2017-02-06T07:30:00Z,30.2583,-88.2131,3.607,28.45,1111122 
DISL,ioos:station:DISL:KATA:1,2017-02-06T08:00:00Z,30.2583,-88.2131,3.588,28.12,1111122 
DISL,ioos:station:DISL:KATA:1,2017-02-06T08:30:00Z,30.2583,-88.2131,3.573,27.91,1111122 
DISL,ioos:station:DISL:KATA:1,2017-02-06T09:00:00Z,30.2583,-88.2131,3.564,27.99,1111122 
DISL,ioos:station:DISL:KATA:1,2017-02-06T09:30:00Z,30.2583,-88.2131,3.571,28.15,1111122 
DISL,ioos:station:DISL:KATA:1,2017-02-06T10:00:00Z,30.2583,-88.2131,3.581,28.26,1111122 
DISL,ioos:station:DISL:KATA:1,2017-02-06T10:30:00Z,30.2583,-88.2131,3.595,28.33,1111122 
DISL,ioos:station:DISL:KATA:1,2017-02-06T11:00:00Z,30.2583,-88.2131,3.609,28.49,1111122 
DISL,ioos:station:DISL:KATA:1,2017-02-06T11:30:00Z,30.2583,-88.2131,3.622,28.68,1111122 
DISL,ioos:station:DISL:KATA:1,2017-02-06T12:00:00Z,30.2583,-88.2131,3.635,28.9,1111122 
DISL,ioos:station:DISL:KATA:1,2017-02-06T12:30:00Z,30.2583,-88.2131,3.651,29.1,1111122 
DISL,ioos:station:DISL:KATA:1,2017-02-06T13:00:00Z,30.2583,-88.2131,3.679,29.23,1111122 
DISL,ioos:station:DISL:KATA:1,2017-02-06T13:30:00Z,30.2583,-88.2131,3.706,29.32,1111122 
DISL,ioos:station:DISL:KATA:1,2017-02-06T14:00:00Z,30.2583,-88.2131,3.736,29.39,1111122 